Home   Weather   Charleston   Past weeks

Flag for USA Past Weather in Charleston, South Carolina, USA — Yesterday and Last 2 Weeks

Now
76 °F

Mostly cloudy.


Feels Like: 75 °F
Forecast: 71 / 82 °F
Wind: No wind

Location: Charleston Air Force Base Reporting Station

Current Time: Jun 25, 2017 at 9:59:49 pm

Latest Report: Jun 25, 2017 at 8:56 pm


Visibility: 10 mi

Pressure: 30.05 "Hg

Humidity: 94%

Dew Point: 74 °F

Location of CharlestonLocation

Past Weather in Charleston — Graph

°F

Charleston Temperature Yesterday

Maximum temperature yesterday: 92 °F (at 1:56 pm)
Minimum temperature yesterday: 77 °F (at 11:56 pm)
Average temperature yesterday: 84 °F

High & Low Weather Summary for the Past Weeks

 TemperatureHumidityPressure
High92 °F (Jun 15, 2:56 pm)97% (Jun 12, 5:56 am)30.24 "Hg (Jun 12, 5:56 am)
Low66 °F (Jun 12, 4:56 am)42% (Jun 14, 2:56 pm)29.85 "Hg (Jun 16, 4:56 pm)
Average79 °F78%30.03 "Hg
* Reported Jun 10 7:56 pm — Jun 25 7:56 pm, Charleston. Weather by CustomWeather, © 2017

Note: Actual official high and low records may vary slightly from our data, if they occured in-between our weather recording intervals... More about our weather records

Advertising

Charleston Weather History for the Previous 24 Hours

Scroll right to see more
 ConditionsComfort  
Time TempWeatherWind HumidityBarometerVisibility
7:56 pm
Sun, Jun 25
76 °FLight rain. More clouds than sun.6 mph94%30.05 "Hg10 mi
6:56 pm76 °FMore clouds than sun.3 mph91%30.05 "Hg10 mi
5:56 pm74 °FLight rain. More clouds than sun.5 mph94%30.05 "Hg10 mi
5:22 pm74 °FThunderstorms. Mostly cloudy.6 mph94%30.05 "Hg7 mi
4:56 pm74 °FThunderstorms. Fog.8 mph94%30.06 "Hg4 mi
4:09 pm76 °FThunderstorms. Fog.8 mph88%30.07 "Hg6 mi
3:56 pm78 °FThunderstorms. Cloudy.15 mph79%30.05 "Hg7 mi
2:56 pm86 °FThunderstorms. Broken clouds.8 mph67%30.02 "Hg10 mi
2:26 pm89 °FThunderstorms. Partly sunny.6 mph61%30.04 "Hg10 mi
1:56 pm88 °FPartly sunny.7 mph61%30.04 "Hg10 mi
12:56 pm88 °FBroken clouds.N/A61%30.06 "Hg10 mi
11:56 am87 °FScattered clouds.5 mph61%30.08 "Hg10 mi
10:56 am87 °FScattered clouds.6 mph59%30.07 "Hg10 mi
9:56 am84 °FScattered clouds.6 mph65%30.07 "Hg10 mi
8:56 am81 °FScattered clouds.7 mph74%30.07 "Hg10 mi
7:56 am78 °FScattered clouds.9 mph82%30.06 "Hg10 mi
6:56 am78 °FScattered clouds.5 mph84%30.05 "Hg10 mi
5:56 am77 °FPassing clouds.7 mph88%30.03 "Hg10 mi
4:56 am76 °FPassing clouds.5 mph94%30.01 "Hg10 mi
3:56 am77 °FPassing clouds.7 mph90%30.01 "Hg9 mi
2:56 am78 °FPassing clouds.9 mph90%30.03 "Hg8 mi
1:56 am77 °FPassing clouds.6 mph94%30.04 "Hg8 mi
12:56 am78 °FPassing clouds.3 mph90%30.04 "Hg10 mi
11:56 pm
Sat, Jun 24
77 °FPartly cloudy.3 mph94%30.05 "Hg10 mi
10:56 pm78 °FPassing clouds.No wind87%30.04 "Hg10 mi
9:56 pm78 °FPassing clouds.9 mph87%30.03 "Hg10 mi
9:22 pm78 °FLight rain. Passing clouds.7 mph82%30.02 "Hg5 mi
Weather by CustomWeather, © 2017

See weather overviewHow to use our weather pages